DK8DX-13 Weather Reports


Display with metric or nautical units.
time (UTC)temp
F
wind
direction
speed
MPH
gust
MPH
rain 1hr
in
rain 24hr
in
rain mn
in
humidity
%
barometer
mb
20260506201026 46 337 0.0 4.0 0.00 0.00 0.00 94 1010.8
20260506200611 46 337 0.0 4.0 0.00 0.00 0.00 94 1010.8
20260506200141 46 347 0.0 4.0 0.00 0.00 0.00 94 1010.8
20260506195701 46 325 0.0 6.0 0.00 0.00 0.00 94 1010.8
20260506195241 46 344 0.0 4.0 0.00 0.00 0.00 94 1010.7
20260506194821 46 325 0.0 7.0 0.00 0.00 0.00 94 1010.7
20260506194356 46 340 0.0 7.0 0.00 0.00 0.00 94 1010.7
20260506193926 46 15 0.0 3.0 0.00 0.00 0.00 94 1010.7
20260506193451 46 353 0.0 4.0 0.00 0.00 0.00 94 1010.6
20260506193022 46 355 0.0 3.0 0.00 0.00 0.00 94 1010.6
20260506192611 46 355 0.0 3.0 0.00 0.00 0.00 94 1010.6
20260506192141 46 5 0.0 3.0 0.00 0.00 0.00 94 1010.5
20260506191721 46 10 0.0 4.0 0.00 0.00 0.00 94 1010.4
20260506191301 46 357 0.0 6.0 0.00 0.00 0.00 94 1010.4
20260506190851 46 320 0.0 4.0 0.00 0.00 0.00 94 1010.4
20260506190431 46 15 0.0 3.0 0.00 0.00 0.00 94 1010.4
20260506185941 46 347 0.0 6.0 0.00 0.00 0.00 94 1010.3
20260506185526 46 352 0.0 6.0 0.00 0.00 0.00 94 1010.3
20260506185106 46 352 0.0 6.0 0.00 0.00 0.00 94 1010.3
20260506184621 46 340 0.0 6.0 0.00 0.00 0.00 94 1010.2
20260506184131 46 346 0.0 4.0 0.00 0.00 0.00 94 1010.2
20260506183711 46 3 0.0 1.0 0.00 0.00 0.00 94 1010.2
20260506183231 46 0.0 3.0 0.00 0.00 0.00 94 1010.1
20260506182801 46 339 0.0 6.0 0.00 0.00 0.00 93 1010.0
20260506182321 46 10 0.0 6.0 0.00 0.00 0.00 93 1010.0
20260506181846 46 347 0.0 8.0 0.00 0.00 0.00 93 1010.0
20260506181426 46 22 0.0 6.0 0.00 0.00 0.00 93 1009.9
20260506181003 46 332 0.0 4.0 0.00 0.00 0.00 93 1009.9
20260506180531 46 339 0.0 6.0 0.00 0.00 0.00 93 1009.8
20260506180126 46 339 0.0 6.0 0.00 0.00 0.00 93 1009.8
20260506175701 46 7 0.0 7.0 0.00 0.00 0.00 93 1009.8
20260506175236 46 319 0.0 7.0 0.00 0.00 0.00 93 1009.5
20260506174751 46 351 0.0 7.0 0.00 0.00 0.00 93 1009.5
20260506174321 46 1 0.0 8.0 0.02 0.00 0.00 93 1009.5
20260506173841 46 8 0.0 7.0 0.02 0.00 0.00 93 1009.5
20260506173431 47 360 0.0 7.0 0.01 0.00 0.00 93 1009.4
20260506173001 47 9 0.0 7.0 0.00 0.00 0.00 93 1009.4
20260506172516 47 353 0.0 7.0 0.00 0.00 0.00 93 1009.3
20260506172046 47 343 0.0 6.0 0.01 0.00 0.00 93 1009.3
20260506171613 47 343 0.0 6.0 0.01 0.00 0.00 93 1009.3
20260506171146 47 345 0.0 4.0 0.02 0.00 0.00 93 1009.3
20260506170721 47 8 0.0 4.0 0.02 0.00 0.00 93 1009.3
20260506170306 47 29 0.0 8.0 0.02 0.00 0.00 93 1009.3
20260506165833 47 348 0.0 4.0 0.03 0.00 0.00 93 1009.3
20260506165411 47 351 0.0 6.0 0.02 0.00 0.00 93 1009.3
20260506165001 47 360 0.0 7.0 0.03 0.00 0.00 93 1009.2
20260506164531 47 356 0.0 4.0 0.02 0.00 0.00 93 1009.2
20260506164051 47 356 0.0 4.0 0.02 0.00 0.00 93 1009.2
20260506163606 47 75 0.0 4.0 0.03 0.00 0.00 93 1009.2
20260506163146 47 8 0.0 6.0 0.02 0.00 0.00 93 1009.2
20260506162716 48 19 0.0 6.0 0.02 0.00 0.00 93 1009.1
20260506162231 47 323 0.0 6.0 0.02 0.00 0.00 93 1009.1
20260506161821 48 33 0.0 8.0 0.03 0.00 0.00 93 1009.1
20260506161413 48 26 0.0 8.0 0.03 0.00 0.00 93 1009.2
20260506160926 48 3 0.0 3.0 0.03 0.00 0.00 93 1009.1
20260506160441 48 19 0.0 8.0 0.04 0.00 0.00 93 1009.0
20260506160006 48 22 0.0 8.0 0.04 0.00 0.00 93 1009.0
20260506155551 48 22 0.0 8.0 0.04 0.00 0.00 93 1009.0
20260506155101 48 349 0.0 6.0 0.05 0.00 0.00 93 1009.1
20260506154646 48 349 0.0 6.0 0.05 0.00 0.00 93 1009.1
20260506154201 48 15 0.0 4.0 0.05 0.00 0.00 93 1009.1
20260506153731 48 6 0.0 10.0 0.05 0.00 0.00 93 1009.0
20260506153316 48 23 0.0 10.0 0.04 0.00 0.00 93 1009.1
20260506152846 48 6 0.0 8.0 0.04 0.00 0.00 93 1009.1
20260506152421 48 349 0.0 8.0 0.04 0.00 0.00 93 1009.1
20260506151941 48 347 0.0 8.0 0.05 0.00 0.00 93 1009.1
20260506151516 48 340 0.0 4.0 0.06 0.00 0.00 93 1009.1
20260506151042 48 350 0.0 15.0 0.07 0.00 0.00 93 1009.0
20260506150616 48 350 0.0 15.0 0.07 0.00 0.00 93 1009.0
20260506150146 48 6 0.0 9.0 0.07 0.00 0.00 93 1008.9
20260506145713 48 345 0.0 9.0 0.07 0.00 0.00 93 1008.9
20260506145257 48 335 0.0 4.0 0.07 0.00 0.00 93 1008.9
20260506144803 48 336 0.0 6.0 0.06 0.00 0.00 93 1008.9
20260506144326 48 9 0.0 7.0 0.06 0.00 0.00 93 1008.9
20260506143836 48 349 0.0 2.0 0.05 0.00 0.00 93 1008.9
20260506143356 48 357 0.0 6.0 0.06 0.00 0.00 93 1008.8
20260506142936 48 3 0.0 6.0 0.05 0.00 0.00 93 1008.9
20260506142451 48 3 0.0 7.0 0.06 0.00 0.00 93 1009.0
20260506142011 48 350 0.0 6.0 0.04 0.00 0.00 93 1008.9
20260506141537 48 352 0.0 4.0 0.04 0.00 0.00 93 1008.9
20260506141056 48 10 0.0 7.0 0.04 0.00 0.00 93 1008.9
20260506140632 48 10 0.0 7.0 0.04 0.00 0.00 93 1008.9
20260506140201 47 4 0.0 4.0 0.04 0.00 0.00 93 1008.8
20260506135736 47 16 0.0 7.0 0.04 0.00 0.00 93 1008.9
20260506135306 47 353 0.0 8.0 0.03 0.00 0.00 93 1008.9
20260506134816 47 332 0.0 7.0 0.03 0.00 0.00 93 1008.9
20260506134405 47 21 0.0 8.0 0.03 0.00 0.00 93 1008.7
20260506133936 48 19 0.0 8.0 0.03 0.00 0.00 93 1008.8
20260506133506 48 342 0.0 8.0 0.03 0.00 0.00 93 1008.7
20260506133046 48 342 0.0 8.0 0.03 0.00 0.00 93 1008.7
20260506132606 47 28 0.0 4.0 0.02 0.00 0.00 93 1008.7
20260506132131 47 28 0.0 4.0 0.02 0.00 0.00 93 1008.7
20260506131641 48 43 0.0 6.0 0.03 0.00 0.00 93 1008.7
20260506131156 48 352 0.0 7.0 0.02 0.00 0.00 93 1008.7
20260506130743 48 356 0.0 3.0 0.01 0.00 0.00 93 1008.7
20260506130306 48 5 0.0 3.0 0.02 0.00 0.00 93 1008.7
20260506125841 48 6 0.0 4.0 0.02 0.00 0.00 93 1008.6
20260506125411 48 344 0.0 3.0 0.03 0.00 0.00 93 1008.5
20260506124936 47 6 0.0 6.0 0.02 0.00 0.00 93 1008.4
20260506124531 47 6 0.0 8.0 0.03 0.00 0.00 93 1008.4
20260506124051 47 6 0.0 8.0 0.03 0.00 0.00 93 1008.4
20260506123610 47 11 0.0 6.0 0.02 0.00 0.00 93 1008.5
20260506123136 47 2 0.0 6.0 0.03 0.00 0.00 93 1008.5
20260506122701 47 348 0.0 3.0 0.02 0.00 0.00 93 1008.6
20260506122231 48 337 0.0 4.0 0.02 0.00 0.00 93 1008.5
20260506121806 48 358 0.0 3.0 0.02 0.00 0.00 93 1008.4
20260506121336 48 341 0.0 6.0 0.03 0.00 0.00 93 1008.3
20260506120911 48 22 0.0 4.0 0.02 0.00 0.00 93 1008.1
20260506120441 48 343 0.0 7.0 0.03 0.00 0.00 93 1008.2
20260506120021 48 354 0.0 4.0 0.02 0.00 0.00 93 1008.3
20260506115546 48 354 0.0 4.0 0.02 0.00 0.00 93 1008.3
20260506115106 48 32 0.0 4.0 0.02 0.00 0.00 93 1008.3
20260506114703 48 32 0.0 4.0 0.02 0.00 0.00 93 1008.3
20260506114221 48 350 0.0 7.0 0.01 0.00 0.00 93 1008.3
20260506113741 48 5 0.0 9.0 0.01 0.00 0.00 93 1008.1
20260506113306 48 63 0.0 7.0 0.00 0.00 0.00 94 1008.2
20260506112846 48 360 0.0 7.0 0.02 0.00 0.00 94 1008.1
20260506112413 48 27 0.0 7.0 0.02 0.00 0.00 94 1008.2
20260506111951 47 349 0.0 8.0 0.01 0.00 0.00 94 1008.0
20260506111526 47 11 0.0 8.0 0.01 0.00 0.00 94 1008.2
20260506111036 47 358 0.0 9.0 0.02 0.00 0.00 94 1008.2
20260506110606 47 358 0.0 9.0 0.02 0.00 0.00 94 1008.2
20260506110136 47 35 0.0 4.0 0.02 0.00 0.00 94 1008.2
20260506105646 47 340 0.0 6.0 0.03 0.00 0.00 94 1008.2
20260506105241 47 21 0.0 9.0 0.03 0.00 0.00 94 1008.3
20260506104811 46 345 0.0 4.0 0.04 0.00 0.00 94 1008.2
20260506104351 46 3 0.0 6.0 0.04 0.00 0.00 94 1008.2
20260506103906 46 359 0.0 4.0 0.04 0.00 0.00 94 1008.1
20260506103416 46 8 0.0 7.0 0.04 0.00 0.00 94 1008.2
20260506102941 47 348 0.0 16.0 0.04 0.00 0.00 94 1008.1
20260506102516 47 336 0.0 8.0 0.04 0.00 0.00 94 1007.9
20260506102101 47 336 0.0 8.0 0.04 0.00 0.00 94 1007.9
20260506101641 47 359 0.0 8.0 0.04 0.00 0.00 94 1007.8
20260506101211 46 354 0.0 7.0 0.05 0.00 0.00 94 1007.8
20260506100716 46 14 0.0 7.0 0.06 0.00 0.00 94 1007.8
20260506100236 46 38 0.0 3.0 0.07 0.00 0.00 94 1007.9
20260506095751 46 359 0.0 4.0 0.08 0.00 0.00 94 1007.7
20260506095331 45 1 0.0 7.0 0.07 0.00 0.00 94 1007.9
20260506094856 45 348 0.0 6.0 0.04 0.00 0.00 94 1007.8
20260506094433 45 334 0.0 6.0 0.03 0.00 0.00 94 1007.9
20260506094006 45 19 0.0 7.0 0.02 0.00 0.00 94 1007.8
20260506093521 45 357 0.0 7.0 0.02 0.00 0.00 94 1007.8
20260506093033 45 357 0.0 7.0 0.02 0.00 0.00 94 1007.8
20260506092616 45 218 0.0 2.0 0.01 0.00 0.00 94 1007.7
20260506092151 45 315 0.0 3.0 0.00 0.00 0.00 94 1007.7
20260506091736 45 284 0.0 3.0 0.00 0.00 0.00 94 1007.7
20260506091326 45 256 0.0 3.0 0.00 0.00 0.00 94 1007.6
20260506090846 45 279 0.0 7.0 0.00 0.00 0.00 94 1007.4
20260506090426 44 327 0.0 10.0 0.01 0.00 0.00 94 1007.4
20260506085951 44 322 0.0 10.0 0.02 0.00 0.00 94 1007.3
20260506085510 44 9 0.0 8.0 0.02 0.00 0.00 94 1007.2
20260506085041 44 360 0.0 7.0 0.01 0.00 0.00 94 1007.3
20260506084621 44 360 0.0 7.0 0.01 0.00 0.00 94 1007.3
20260506084151 44 251 0.0 6.0 0.00 0.00 0.00 94 1007.3
20260506083721 44 332 0.0 8.0 0.00 0.00 0.00 94 1007.2
20260506083251 45 351 0.0 8.0 0.00 0.00 0.00 94 1007.2
20260506082826 45 348 0.0 4.0 0.00 0.00 0.00 94 1007.2
20260506082416 45 56 0.0 7.0 0.00 0.00 0.00 94 1007.1
20260506081951 45 329 0.0 8.0 0.00 0.00 0.00 94 1007.1
20260506081513 45 337 0.0 9.0 0.00 0.00 0.00 94 1007.0
20260506081031 45 337 0.0 9.0 0.00 0.00 0.00 94 1007.0
20260506080600 45 2 0.0 7.0 0.00 0.00 0.00 94 1007.0
20260506080136 45 2 0.0 7.0 0.00 0.00 0.00 94 1007.0
20260506073426 46 4 0.0 8.0 0.00 0.00 0.00 94 1007.0
20260506073000 46 358 0.0 9.0 0.00 0.00 0.00 94 1007.0
20260506072501 46 353 0.0 9.0 0.00 0.00 0.00 94 1007.0
20260506072021 46 353 0.0 9.0 0.00 0.00 0.00 94 1007.0
20260506071601 47 254 0.0 10.0 0.02 0.00 0.00 94 1007.0
20260506071121 47 254 0.0 10.0 0.02 0.00 0.00 94 1007.0
20260506070631 47 227 0.0 6.0 0.01 0.00 0.00 94 1006.8
20260506070203 47 137 0.0 7.0 0.00 0.00 0.00 94 1006.9
20260506062116 47 360 0.0 9.0 0.03 0.00 0.00 94 1006.3
20260506061651 47 47 0.0 8.0 0.03 0.00 0.00 94 1006.4
20260506061236 47 16 0.0 8.0 0.04 0.00 0.00 94 1006.4
20260506060806 47 39 0.0 8.0 0.05 0.00 0.00 94 1006.3
20260506060336 47 324 0.0 9.0 0.07 0.00 0.00 94 1006.2
20260506051326 47 15 0.0 9.0 0.04 0.00 0.00 94 1006.3
20260506050856 47 21 0.0 13.0 0.03 0.00 0.00 94 1006.2
20260506050436 47 357 0.0 4.0 0.02 0.00 0.00 94 1006.2
20260506045116 47 22 0.0 7.0 0.02 0.00 0.00 94 1006.3
20260506044656 47 64 0.0 10.0 0.03 0.00 0.00 94 1006.2
20260506044221 47 23 0.0 10.0 0.02 0.00 0.00 94 1006.2
20260506043736 47 66 0.0 9.0 0.03 0.00 0.00 94 1006.2
20260506043305 47 7 0.0 6.0 0.03 0.00 0.00 94 1006.2
20260506042831 47 60 0.0 8.0 0.03 0.00 0.00 94 1006.2
20260506042401 47 342 0.0 7.0 0.04 0.00 0.00 94 1006.1
20260506041926 47 63 0.0 7.0 0.04 0.00 0.00 94 1006.2
20260506041511 47 15 0.0 9.0 0.04 0.00 0.00 94 1006.2
20260506041016 47 12 0.0 9.0 0.04 0.00 0.00 94 1006.1
20260506040541 47 25 0.0 13.0 0.04 0.00 0.00 94 1006.2
20260506040106 47 25 0.0 13.0 0.04 0.00 0.00 94 1006.2
20260506035631 48 29 0.0 9.0 0.04 0.00 0.00 94 1006.2
20260506035156 48 15 0.0 8.0 0.04 0.00 0.00 94 1006.3
20260506034724 48 356 0.0 13.0 0.04 0.00 0.00 94 1006.2
20260506034256 48 23 0.0 9.0 0.04 0.00 0.00 94 1006.3
20260506033841 48 22 0.0 9.0 0.05 0.00 0.00 94 1006.3
20260506033411 48 41 0.0 9.0 0.05 0.00 0.00 94 1006.3
20260506032946 48 39 0.0 13.0 0.06 0.00 0.00 94 1006.3
20260506032526 48 360 0.0 11.0 0.06 0.00 0.00 94 1006.3
20260506032036 48 360 0.0 11.0 0.06 0.00 0.00 94 1006.3
20260506031606 48 3 0.0 13.0 0.08 0.00 0.00 94 1006.3
20260506031121 48 6 0.0 10.0 0.09 0.00 0.00 94 1006.3
20260506030716 48 13 0.0 9.0 0.10 0.00 0.00 94 1006.5
20260506030253 48 1 0.0 11.0 0.08 0.00 0.00 94 1006.5
20260506025806 48 15 0.0 14.0 0.07 0.00 0.00 94 1006.5
20260506025328 48 52 0.0 15.0 0.07 0.00 0.00 94 1006.6
20260506024912 48 356 0.0 11.0 0.08 0.00 0.00 94 1006.7
20260506024456 49 2 0.0 11.0 0.10 0.00 0.00 94 1006.6
20260506024021 49 19 0.0 14.0 0.11 0.00 0.00 94 1006.7
20260506023602 49 19 0.0 14.0 0.11 0.00 0.00 94 1006.7
20260506023151 49 349 0.0 14.0 0.11 0.00 0.00 94 1006.7
20260506022726 49 8 0.0 11.0 0.11 0.00 0.00 93 1006.7
20260506022256 49 29 0.0 10.0 0.10 0.00 0.00 93 1006.7
20260506021811 49 24 0.0 11.0 0.10 0.00 0.00 93 1006.8
20260506021316 49 356 0.0 9.0 0.08 0.00 0.00 93 1006.9
20260506020911 49 16 0.0 8.0 0.07 0.00 0.00 93 1006.9
20260506020416 49 356 0.0 7.0 0.07 0.00 0.00 93 1007.0
20260506015940 49 18 0.0 11.0 0.07 0.00 0.00 93 1007.0
20260506015526 49 15 0.0 13.0 0.08 0.00 0.00 93 1007.0
20260506015056 49 15 0.0 13.0 0.08 0.00 0.00 93 1007.0
20260506014626 49 359 0.0 13.0 0.08 0.00 0.00 93 1007.0
20260506014201 49 35 0.0 14.0 0.08 0.00 0.00 93 1007.1
20260506013733 49 45 0.0 14.0 0.08 0.00 0.00 93 1007.2
20260506013311 49 35 0.0 10.0 0.08 0.00 0.00 93 1007.1
20260506012821 49 25 0.0 10.0 0.08 0.00 0.00 93 1007.1
20260506012356 49 355 0.0 8.0 0.07 0.00 0.00 93 1007.2
20260506011922 49 3 0.0 8.0 0.08 0.00 0.00 93 1007.1
20260506011501 49 343 0.0 9.0 0.08 0.00 0.00 93 1007.2
20260506011041 50 359 0.0 9.0 0.08 0.00 0.00 93 1007.2
20260506010543 50 358 0.0 14.0 0.07 0.00 0.00 93 1007.2
20260506010106 50 358 0.0 14.0 0.07 0.00 0.00 93 1007.2
20260506005656 50 4 0.0 13.0 0.06 0.00 0.00 93 1007.3
20260506005211 50 13 0.0 8.0 0.06 0.00 0.00 93 1007.4
20260506004746 50 2 0.0 9.0 0.06 0.00 0.00 93 1007.4
20260506004256 50 4 0.0 11.0 0.07 0.00 0.00 93 1007.3
20260506003836 50 31 0.0 11.0 0.08 0.00 0.00 93 1007.4
20260506003406 50 25 0.0 6.0 0.08 0.00 0.00 93 1007.4
20260506002953 50 2 0.0 9.0 0.10 0.00 0.00 93 1007.5
20260506002516 50 11 0.0 10.0 0.12 0.00 0.00 93 1007.6
20260506002053 50 72 0.0 8.0 0.12 0.00 0.00 93 1007.7
20260506001156 50 38 0.0 8.0 0.11 0.00 0.00 93 1007.7
20260506000716 50 7 0.0 7.0 0.10 0.00 0.00 92 1007.9
20260506000241 50 37 0.0 4.0 0.09 0.00 0.00 92 1007.9
20260505235759 50 21 0.0 7.0 0.10 0.00 0.00 92 1008.0
20260505235331 50 85 0.0 6.0 0.10 0.00 0.00 92 1008.1
20260505234921 50 29 0.0 7.0 0.11 0.00 0.00 92 1008.1
20260505234456 50 26 0.0 6.0 0.11 0.00 0.00 92 1008.1
20260505234021 50 341 0.0 8.0 0.11 0.00 0.00 92 1008.1
20260505233551 50 38 0.0 11.0 0.10 0.00 0.00 92 1008.1
20260505233116 50 38 0.0 11.0 0.10 0.00 0.00 92 1008.1
20260505232656 50 36 0.0 13.0 0.08 0.00 0.00 92 1008.1
20260505232226 50 8 0.0 14.0 0.08 0.00 0.00 92 1008.2
20260505231746 50 340 0.0 14.0 0.08 0.00 0.00 92 1008.2
20260505231316 51 12 0.0 7.0 0.08 0.00 0.00 92 1008.2
20260505230901 51 43 0.0 11.0 0.08 0.00 0.00 92 1008.2
20260505230431 51 45 0.0 7.0 0.08 0.00 0.00 92 1008.2
20260505225946 51 60 0.0 9.0 0.09 0.00 0.00 92 1008.2
20260505225511 51 5 0.0 9.0 0.09 0.00 0.00 92 1008.3
20260505225036 51 5 0.0 9.0 0.09 0.00 0.00 92 1008.3
20260505224556 51 25 0.0 14.0 0.08 0.00 0.00 92 1008.3
20260505224136 51 25 0.0 14.0 0.08 0.00 0.00 92 1008.3
20260505223706 51 36 0.0 8.0 0.08 0.00 0.00 92 1008.3
20260505223246 51 22 0.0 9.0 0.07 0.00 0.00 92 1008.3
20260505222751 51 10 0.0 11.0 0.08 0.00 0.00 92 1008.4
20260505222326 51 44 0.0 13.0 0.07 0.00 0.00 91 1008.5
20260505221911 51 358 0.0 13.0 0.07 0.00 0.00 91 1008.4
20260505221441 51 8 0.0 9.0 0.06 0.00 0.00 91 1008.5
20260505221006 52 11 0.0 8.0 0.05 0.00 0.00 91 1008.4
20260505220536 52 71 0.0 3.0 0.05 0.00 0.00 91 1008.5
20260505220106 52 71 0.0 3.0 0.05 0.00 0.00 91 1008.5
20260505215636 52 26 0.0 6.0 0.04 0.00 0.00 91 1008.6
20260505215156 52 9 0.0 7.0 0.03 0.00 0.00 91 1008.6
20260505214716 52 352 0.0 9.0 0.02 0.00 0.00 91 1008.6
20260505214301 52 40 0.0 7.0 0.02 0.00 0.00 91 1008.8
20260505213821 52 360 0.0 6.0 0.01 0.00 0.00 91 1008.8
20260505213341 52 24 0.0 6.0 0.01 0.00 0.00 91 1008.8
20260505212906 52 360 0.0 7.0 0.00 0.00 0.00 91 1008.8
20260505212441 52 30 0.0 7.0 0.00 0.00 0.00 91 1008.9
20260505212036 52 0.0 2.0 0.00 0.00 0.00 91 1008.8
20260505211621 52 0.0 2.0 0.00 0.00 0.00 91 1008.8
20260505211141 52 53 0.0 6.0 0.00 0.00 0.00 91 1008.7
20260505210711 52 352 0.0 6.0 0.00 0.00 0.00 91 1008.9
20260505210236 52 337 0.0 6.0 0.00 0.00 0.00 91 1008.9
20260505205741 52 103 0.0 6.0 0.00 0.00 0.00 91 1009.0
20260505205301 52 340 0.0 7.0 0.00 0.00 0.00 90 1008.9
20260505204801 52 11 0.0 6.0 0.00 0.00 0.00 90 1008.9
20260505204346 53 346 0.0 6.0 0.00 0.00 0.00 90 1008.9
20260505203901 53 39 0.0 3.0 0.00 0.00 0.00 90 1009.0
20260505203446 53 348 0.0 6.0 0.00 0.00 0.00 90 1009.0
20260505203021 53 351 0.0 6.0 0.00 0.00 0.00 90 1008.9
20260505202536 53 351 0.0 6.0 0.00 0.00 0.00 90 1008.9
20260505202046 53 53 0.0 6.0 0.00 0.00 0.00 90 1009.0
20260505201609 53 53 0.0 6.0 0.00 0.00 0.00 90 1009.0
20260505201151 53 73 0.0 3.0 0.00 0.00 0.00 90 1009.0